Location: Unspecified
(0.0000°N, 0.0000°E)
Time: 02:47:25
(UTC+02:00)

CZ-4B DEB - Visible Passes

Search period start: 01 July 2016 00:00
Search period end: 11 July 2016 00:00
Orbit: 432 x 441 km, 97.5° (Epoch: 29 June)

Date Brightness Start Highest point End Pass type
(mag) Time Alt. Az. Time Alt. Az. Time Alt. Az.
01 Jul 4.6 20:56:57 16° E 20:57:08 16° E 20:59:14 10° NE visible
02 Jul 3.9 21:50:56 44° WNW 21:50:56 44° WNW 21:53:39 10° NNW visible
03 Jul 3.9 21:11:31 27° ENE 21:11:31 27° ENE 21:14:21 10° NNE visible
04 Jul 5.1 22:05:27 25° W 22:05:27 25° W 22:07:36 10° NW visible
05 Jul 3.1 21:26:00 49° ENE 21:26:00 49° ENE 21:29:00 10° N visible
06 Jul 5.1 20:46:31 10° E 20:46:47 10° E 20:47:12 10° ENE visible
06 Jul 5.9 22:19:53 14° W 22:19:53 14° W 22:21:05 10° WNW visible
07 Jul 3.1 21:40:24 66° NNW 21:40:24 66° NNW 21:43:18 10° NNW visible
08 Jul 4.5 21:00:54 17° E 21:00:58 17° E 21:03:14 10° NE visible
09 Jul 4.2 21:54:44 38° WNW 21:54:44 38° WNW 21:57:17 10° NNW visible
10 Jul 3.8 21:15:11 30° ENE 21:15:11 30° ENE 21:17:59 10° NNE visible
